カタログに戻る

DELTA 1 DEB

運用中SSO
NORAD 21373·DEBRIS·🇺🇸 United States

打ち上げ Jun 12, 1975 から Vandenberg Space Force Base

Loading…

次のパス (今後24時間)

TLE

最新Source: Space-Track

元期: Sep 14, 2026, 12:12 UTC

1 21373U 75052CT  26257.50894874  .00000057  00000-0  20107-3 0  9997
2 21373  99.9235 149.3579 0074282 171.9576 313.0475 13.32712786716212

AllMySatでDELTA 1 DEBをリアルタイム追跡

Download on the App Store